Location: Staunton
(38.1490°N, 79.0720°W)
Time: 14:32:07
(UTC-04:00)

ISS - Pass Details

Date: 16 July 2019
Orbit: 409 x 418 km, 51.6° (Epoch: 20 July)

Event Time Altitude Azimuth Distance (km) Brightness Sun altitude
Rises 00:04:27 0° 269° (W) 2,344 0.3 -27.7°
Reaches altitude 10° 00:07:00 10° 288° (WNW) 1,482 -0.6 -27.9°
Maximum altitude 00:09:24 18° 335° (NNW) 1,077 -0.9 -28.0°
Drops below altitude 10° 00:11:49 10° 22° (NNE) 1,482 -0.4 -28.2°
Sets 00:14:22 0° 42° (NE) 2,344 0.4 -28.3°
